Location: Bush Observatory
(40.2653°N, 94.3194°W)
Time: 03:06:00
(UTC-05:00)

Daily predictions for brighter satellites

Satellite Brightness Start Highest point End
(mag) Time Altitude Azimuth Time Altitude Azimuth Time Altitude Azimuth
H-2A R/B 4.4 00:13:40 21° NW 00:13:40 21° NW 00:15:20 10° NNW
USA 238 DEB 4.3 00:10:53 10° NW 00:16:40 48° W 00:16:40 48° W
USA 238 4.3 00:10:58 10° NW 00:16:46 49° W 00:16:46 49° W
NOSS 3-2 (A) 3.9 00:11:30 10° NW 00:18:44 83° NNW 00:18:44 83° NNW
Lacrosse 5 3.6 00:20:53 28° NW 00:21:14 29° NNW 00:25:38 10° NNE
Cosmos 2237 Rocket 3.7 00:26:43 28° NNE 00:26:43 28° NNE 00:29:20 10° NNE
COSMOS 2455 4.4 00:30:23 10° N 00:35:15 27° NE 00:35:15 27° NE
ATLAS 3B R/B 4.2 00:39:18 10° NW 00:42:47 23° W 00:42:47 23° W
NOSS 3-2 (C) 4.2 00:47:18 10° NW 00:53:37 62° WNW 00:53:37 62° WNW
Cosmos 2278 Rocket 3.7 00:57:17 10° NNW 01:00:12 31° NW 01:00:12 31° NW
Mayak 1.7 01:08:43 10° N 01:09:21 14° N 01:09:21 14° N
NOSS 3-4 (C) 4.5 01:21:49 41° NW 01:21:49 41° NW 01:27:33 10° NNE
SL-16 R/B 3.6 01:31:16 34° NNE 01:31:16 34° NNE 01:34:25 10° NNE
Cosmos 2219 Rocket 4.2 01:28:56 21° NW 01:28:56 21° NW 01:33:06 10° N
Cosmos 2333 Rocket 4.2 01:39:35 21° NW 01:39:35 21° NW 01:43:36 10° N
CENTAUR R/B 3.1 01:32:03 10° NW 01:39:08 74° NNW 01:39:08 74° NNW
USA 215 3.9 01:42:32 46° NW 01:42:32 46° NW 01:46:55 10° NW
Cosmos 2237 Rocket 4.3 02:08:31 18° NW 02:08:31 18° NW 02:12:11 10° N
Cosmos 1943 Rocket 4.2 02:05:01 10° N 02:09:12 21° NE 02:10:34 20° ENE
Cosmos 2369 Rocket 3.4 02:08:22 10° N 02:13:03 38° NE 02:13:03 38° NE
SL-16 R/B 4.5 02:12:49 17° E 02:15:29 22° ENE 02:20:06 10° NNE
ADEOS Rocket 4.3 02:10:48 10° NNE 02:14:17 28° ENE 02:14:17 28° ENE
COSMOS 2455 4.5 02:15:51 10° NW 02:18:22 25° NW 02:18:22 25° NW
Cosmos 1943 4.4 02:25:19 36° ENE 02:25:19 36° ENE 02:28:56 10° NE
Cosmos 2218 Rocket 4.4 02:26:20 61° NNE 02:26:20 61° NNE 02:31:31 10° N
Resurs 1-4 Rocket 4.2 02:25:16 10° NE 02:28:16 18° E 02:28:16 18° E
CZ-2D R/B 4.1 02:28:30 10° NE 02:31:55 19° E 02:31:55 19° E
BREEZE-M DEB (TANK) 3.7 03:05:24 72° ESE 03:05:24 72° ESE 03:18:10 10° SE
SL-16 R/B 4.4 03:13:07 13° NW 03:13:45 13° NW 03:16:29 10° NNW
Cosmos 841 Rocket 3.9 03:19:04 61° NE 03:19:04 61° NE 03:23:23 10° NNE
Gblst 52 Del rocket 4.3 03:21:32 73° NNW 03:21:32 73° NNW 03:27:04 10° NE
ARIANE 5 R/B 3.2 03:17:41 10° NNE 03:22:44 47° E 03:22:47 46° E
NPP 3.9 03:21:02 10° N 03:25:42 61° NNW 03:25:42 61° NNW
IRS-1C 4.1 03:32:59 10° N 03:38:01 71° NW 03:38:01 71° NW
Cosmos 967 Rocket 4.4 03:40:24 64° W 03:40:54 67° WNW 03:47:13 10° NNE
ADEOS 3.8 03:37:22 10° NNE 03:42:33 61° ESE 03:43:02 58° SE
IRS-1D 3.4 03:37:59 10° NNE 03:43:08 83° ESE 03:43:09 83° ESE
Cosmos 2221 2.9 03:51:18 61° ENE 03:51:18 61° ENE 03:55:23 10° NNE
Spot 4 Rocket 3.9 03:45:55 10° NNE 03:51:05 82° WNW 03:51:11 81° W
BREEZE-M DEB (TANK) 4.3 03:40:46 10° W 03:51:42 46° NNW 03:54:34 10° ENE
Cosmos 2098 Rocket 3.8 03:51:31 63° SSW 03:52:37 86° W 03:58:06 10° N
Cosmos 1943 Rocket 2.6 03:47:54 10° NNW 03:52:01 45° WNW 03:52:01 45° WNW
Cosmos 2369 Rocket 3.9 03:52:42 10° NW 03:54:47 20° WNW 03:54:47 20° WNW
SL-16 R/B 2.5 03:57:55 58° SW 03:58:36 61° WSW 04:04:46 10° NNW
ADEOS Rocket 3.7 03:56:26 10° N 04:01:12 31° WNW 04:01:14 31° WNW
CBERS 1 LM4 rocket 4.5 03:59:22 10° N 04:04:27 69° WNW 04:04:57 65° WSW
Cosmos 1656 Rocket 3.7 03:59:40 10° NNW 04:05:23 79° ENE 04:10:38 12° SSE
Resurs 1-4 Rocket 2.2 04:03:47 10° N 04:08:55 55° WNW 04:09:20 53° W
Cosmos 1242 Rocket 4.4 04:11:07 22° NNW 04:11:07 22° NNW 04:12:45 10° N
Cosmos 1400 Rocket 2.9 04:07:14 10° N 04:11:10 69° E 04:11:23 67° ESE
Cosmos 2058 4.4 04:08:20 10° NNW 04:10:29 26° NW 04:10:29 26° NW
Cosmos 372 Rocket 3.9 04:07:17 10° NNW 04:12:28 83° ENE 04:15:40 24° SSE
CZ-2D R/B 2.3 04:07:25 10° N 04:12:38 52° WNW 04:13:14 49° W
Cosmos 2123 Rocket 3.9 04:07:00 10° N 04:13:16 74° W 04:15:38 40° SSW
Cosmos 1821 Rocket 4.4 04:13:59 42° W 04:14:55 45° WNW 04:20:53 10° N
CZ-3A R/B 3.2 04:08:14 10° NW 04:15:42 56° SW 04:21:04 10° SSE
UNKNOWN OBJECT B 2.7 04:11:50 10° NNE 04:15:54 85° E 04:16:06 80° SSE
MOZ.5/SAFIR/RUBIN 5/SL-8 3.6 04:19:03 58° SSW 04:19:55 76° WSW 04:24:36 10° NNW
Cosmos 540 Rocket 3.6 04:22:43 49° WSW 04:23:31 54° WNW 04:28:32 10° N
Sich 1 3.6 04:19:54 10° N 04:24:14 57° E 04:27:18 18° SSE
Cosmos 1125 Rocket 3.4 04:22:19 10° NNW 04:27:28 61° WSW 04:29:15 39° SSW
Cosmos 1934 Rocket 4.4 04:32:05 36° WSW 04:33:28 40° WNW 04:39:09 10° N
CZ-2D R/B 3.4 04:32:56 10° N 04:36:55 61° WNW 04:37:28 54° WSW
Cosmos 1605 Rocket 4.3 04:40:54 32° SW 04:43:37 51° WNW 04:49:51 10° N
Cosmos 1726 2.0 04:45:05 53° SW 04:45:46 69° W 04:49:29 10° N
MOS 1 Rocket 4.3 04:42:44 10° NNW 04:46:19 26° WNW 04:46:40 26° WNW
Cosmos 1633 Rocket 2.9 04:45:18 10° N 04:49:42 90° W 04:53:42 12° S
NOSS 2 (A) 4.2 04:51:28 35° NNW 04:52:20 74° NE 04:55:03 10° SE
COSMOS 2406 3.4 04:50:49 30° SW 04:53:29 57° WNW 04:59:06 10° NNE
ERBS 2.4 04:50:34 10° NW 04:54:02 78° NE 04:57:26 10° SE
ARIANE 5 R/B 3.9 04:57:32 10° NNW 05:01:29 22° WNW 05:03:07 19° W
USA 161 2.5 05:03:10 24° NNW 05:03:10 24° NNW 05:04:09 10° NNW
ADEOS II 2.1 04:58:06 10° NNE 05:03:23 83° ESE 05:08:28 11° SSW
USA 229 DEB 3.8 04:57:43 10° NW 05:04:47 61° WSW 05:11:58 10° SSE
Cosmos 2016 Rocket 4.3 04:58:47 10° S 05:04:50 65° E 05:10:53 10° NNE
USA 229 3.8 04:57:50 10° NW 05:04:54 62° WSW 05:12:04 10° SSE
BREEZE M DEB (TANK) 3.5 05:06:52 10° WNW 05:10:31 70° SSW 05:23:58 10° SE
Cosmos 1833 Rocket 4.3 05:06:21 10° SSE 05:11:16 32° ESE 05:16:13 10° NE
Cosmos 1315 Rocket 3.2 05:08:15 10° NNW 05:12:05 41° W 05:14:44 18° SSW
Cosmos 1328 Rocket 3.5 05:09:34 17° SSW 05:12:49 68° W 05:17:09 10° N
Cosmos 1802 Rocket 4.0 05:07:19 10° S 05:13:30 89° W 05:19:48 10° N
Cosmos 1300 3.3 05:16:33 23° SW 05:18:20 37° WNW 05:21:56 10° N
Cosmos 2100 Rocket 4.1 05:12:07 10° SSW 05:18:24 65° W 05:24:46 10° N
SL-27 R/B 3.0 05:17:23 26° WSW 05:18:44 38° WNW 05:21:56 10° N
Cosmos 1666 Rocket 4.3 05:16:48 10° NNW 05:20:44 32° W 05:23:45 15° SSW
PSLV R/B 3.5 05:19:41 10° N 05:24:04 84° W 05:28:22 10° SSW
CZ-4B R/B 3.1 05:23:18 10° N 05:27:42 70° WNW 05:32:12 10° SSW
Okean O Rocket 1.6 05:25:07 10° N 05:29:34 82° WNW 05:33:58 10° SSW
Cosmos 1933 Rocket 3.5 05:25:15 10° N 05:29:42 75° W 05:34:09 10° S
Tsikada Rocket 4.5 05:27:08 10° N 05:33:26 68° E 05:39:44 10° SSE
CZ-4B DEB 4.3 05:28:21 10° NNE 05:33:55 89° ESE 05:39:25 10° SSW
PSLV R/B 4.2 05:30:27 10° N 05:34:27 48° WNW 05:38:26 10° SSW
Lacrosse 5 3.4 05:30:20 10° NNW 05:35:04 38° NE 05:39:47 10° ESE
Cosmos 1455 2.6 05:31:51 10° S 05:35:34 65° E 05:39:17 10° NNE
PSLV R/B 3.2 05:33:15 13° W 05:36:03 75° N 05:39:19 10° E
COSMOS 2487 3.5 05:32:57 10° S 05:36:20 46° ESE 05:39:45 10° NNE
Tiangong 2 3.2 05:35:29 10° SSW 05:37:53 19° SSE 05:40:17 10° E
USA 234 3.6 05:32:54 10° NE 05:39:25 65° SE 05:45:54 10° SW
Cosmos 1697 Rocket 4.2 05:35:12 10° N 05:40:34 42° ENE 05:45:55 10° SE
NOSS 3-1 (C) 4.1 05:33:12 10° NW 05:40:53 73° WSW 05:49:18 10° SSE
Meteor 2-3 Rocket 3.7 05:39:24 10° NNW 05:45:03 78° W 05:50:43 10° S
Abrixas 3.3 05:42:52 10° NW 05:45:24 44° NNE 05:47:56 10° E
Cosmos 773 Rocket 4.3 05:42:14 10° SW 05:47:21 51° WNW 05:52:33 10° N
Meteor 1-31 Rocket 3.0 05:47:07 10° NNE 05:51:05 74° ESE 05:55:00 10° S
Cosmos 2082 Rocket 2.5 05:45:58 10° SSW 05:51:32 73° ESE 05:57:10 10° NNE
Cosmos 1151 Rocket 3.5 05:49:43 10° SSW 05:53:48 41° WNW 05:57:53 10° N
Cosmos 2228 Rocket 4.4 06:01:21 10° SW 06:04:51 22° WNW 06:08:21 10° NNW
CZ-4B R/B 3.5 06:00:46 10° N 06:06:04 51° WNW 06:11:16 10° SW
